Location: Aix-en-Ergny
(50.5839°N, 1.9996°E)
Time: 05:56:55
(UTC+00:00)

Daily predictions for brighter satellites

Satellite Brightness Start Highest point End
(mag) Time Altitude Azimuth Time Altitude Azimuth Time Altitude Azimuth
CENTAUR R/B 4.5 01:23:56 29° E 01:23:56 29° E 01:28:11 10° ESE
ATLAS 2AS CENTAUR R/B 4.3 01:50:45 31° ESE 01:50:45 31° ESE 01:56:52 10° NE
Cosmos 2333 Rocket 4.4 01:57:56 21° ENE 01:57:56 21° ENE 02:00:10 10° NE
Cosmos 2219 Rocket 4.3 02:06:06 23° ENE 02:06:06 23° ENE 02:08:24 10° NE
SL-16 R/B 4.4 02:07:54 19° NNE 02:07:54 19° NNE 02:09:30 10° NNE
ADEOS II 4.2 02:13:15 10° NNE 02:15:06 22° NNE 02:15:06 22° NNE
Cosmos 2237 Rocket 4.2 02:20:04 22° E 02:20:04 22° E 02:23:58 10° NE
Cosmos 2322 Rocket 4.2 02:34:52 20° N 02:34:52 20° N 02:36:51 10° NNE
Cosmos 2360 Rocket 3.9 02:41:26 26° N 02:41:26 26° N 02:44:01 10° NNE
COSMOS 2428 3.8 02:47:56 41° NE 02:47:56 41° NE 02:51:35 10° NNE
CZ-2D R/B 4.4 02:45:24 10° N 02:46:21 15° N 02:46:21 15° N
COSMOS 2455 3.7 02:57:25 43° N 02:57:25 43° N 03:01:35 10° NNE
USA 234 3.3 02:52:47 10° ESE 02:59:18 75° NNE 02:59:22 75° NNE
NOSS 3-4 (A) 4.2 02:59:59 45° SE 03:00:09 45° ESE 03:06:11 10° NE
NOSS 3-4 (C) 4.2 03:00:03 44° SE 03:00:16 45° ESE 03:06:18 10° NE
ATLAS 3B R/B 3.1 03:06:13 51° SSE 03:06:13 51° SSE 03:11:10 10° SE
CENTAUR R/B 3.0 03:11:14 74° WSW 03:11:26 75° SW 03:20:04 10° SSE
ATLAS 5 CENTAUR R/B 4.1 03:11:18 31° NNW 03:13:00 38° NNE 03:25:53 10° E
SL-16 R/B 4.3 03:11:31 10° SSE 03:15:53 23° ESE 03:20:14 10° NE
ARIANE 5 R/B 4.2 03:10:59 10° N 03:13:02 25° N 03:13:02 25° N
Cosmos 2297 4.2 03:23:21 26° NNW 03:26:32 60° NE 03:32:13 10° SE
USA 32 4.4 03:26:07 57° SE 03:26:47 63° E 03:31:59 10° NNE
CZ-2C R/B 4.4 03:30:17 10° NNE 03:34:47 29° E 03:39:11 10° SSE
Cosmos 1606 Rocket 4.4 03:30:35 10° N 03:34:48 48° ENE 03:38:59 10° SSE
ADEOS 4.1 03:29:42 10° NNE 03:34:53 57° ESE 03:36:55 35° SSE
Resurs 1-4 Rocket 4.3 03:34:00 10° NNW 03:34:48 13° NNW 03:34:48 13° NNW
BREEZE-M DEB (TANK) 3.4 03:38:42 42° ESE 03:38:42 42° ESE 03:40:31 10° E
Cosmos 2333 Rocket 2.7 03:39:58 48° NNW 03:39:58 48° NNW 03:44:47 10° NNE
ATLAS 2AS CENTAUR R/B 3.0 03:38:13 53° SW 03:40:26 84° NW 03:48:29 10° NE
RESURS DK-1 3.8 03:43:35 31° SE 03:44:27 34° ESE 03:48:13 10° NE
Cosmos 389 Rocket 4.4 03:48:53 24° NNE 03:48:53 24° NNE 03:50:28 10° NNE
Cosmos 2219 Rocket 2.7 03:47:50 43° NNW 03:47:50 43° NNW 03:52:34 10° NNE
Spot 2 4.4 03:45:20 10° NNE 03:48:38 57° NE 03:48:38 57° NE
SL-16 R/B 4.2 03:49:46 15° NNW 03:49:46 15° NNW 03:52:49 10° N
Meteor 1-4 Rocket 3.8 03:50:31 38° ENE 03:50:31 38° ENE 03:53:07 10° NNE
ADEOS II 3.6 03:53:24 10° N 03:56:01 23° NNW 03:56:01 23° NNW
Cosmos 2228 3.1 03:54:32 10° N 03:58:49 72° E 04:03:03 10° SSE
Cosmos 1726 3.2 03:58:01 10° N 04:01:33 43° ENE 04:05:04 10° SSE
Cosmos 2237 Rocket 2.1 04:01:56 54° SW 04:03:12 74° WNW 04:08:56 10° NNE
Cosmos 2344 4.4 03:55:58 10° NW 04:05:16 86° NE 04:18:23 10° SE
USA 267 3.3 04:00:03 10° ENE 04:06:38 79° SSE 04:09:42 35° SW
NOSS 0 Rocket 3.9 04:06:32 48° WSW 04:08:05 63° NW 04:14:16 10° NNE
Cosmos 1437 Rocket 4.3 04:06:58 10° SSE 04:10:27 35° E 04:13:56 10° NNE
PSLV R/B 3.3 04:07:04 10° N 04:11:14 69° WNW 04:11:14 69° WNW
COSMO-SKYMED 1 4.3 04:09:07 10° SE 04:13:01 34° ENE 04:16:58 10° N
Cosmos 2369 Rocket 3.2 04:08:13 10° NNW 04:13:35 44° NE 04:18:55 10° ESE
Cosmos 1726 Rocket 3.4 04:09:46 10° N 04:14:07 86° W 04:18:26 10° S
Meteor 1-21 4.4 04:13:53 46° W 04:14:27 47° WNW 04:19:57 10° N
Okean 1-7 Rocket 4.1 04:11:22 10° S 04:15:45 60° E 04:20:14 10° NNE
Cosmos 1908 4.4 04:12:15 10° N 04:15:56 43° ENE 04:19:35 10° SSE
Cosmos 2322 Rocket 4.3 04:16:41 12° NNW 04:17:36 12° NNW 04:19:53 10° N
Cosmos 1980 3.8 04:20:04 42° WSW 04:21:35 54° NW 04:27:09 10° NNE
IDEFIX/ARIANE 42P 2.6 04:16:56 10° N 04:22:06 59° WNW 04:24:24 32° SW
Cosmos 2327 Rocket 4.3 04:15:59 10° SSW 04:22:10 77° W 04:28:19 10° N
Cosmos 676 Rocket 3.9 04:19:09 23° SSW 04:22:30 88° WNW 04:27:46 10° NNE
Cosmos 2360 Rocket 3.9 04:23:13 16° NW 04:23:51 16° NNW 04:27:19 10° N
Cosmos 407 Rocket 3.7 04:27:15 40° W 04:28:22 47° WNW 04:33:20 10° NNE
Cosmos 2154 Rocket 3.9 04:22:24 10° SSW 04:28:36 82° W 04:34:53 10° N
COSMOS 2428 3.7 04:29:57 26° NW 04:30:45 27° NW 04:35:33 10° NNE
Cosmos 1190 Rocket 4.2 04:29:54 36° WSW 04:31:37 50° WNW 04:36:46 10° NNE
Cosmos 1943 Rocket 2.6 04:26:20 10° NNW 04:32:00 64° ENE 04:37:38 10° SE
Cosmos 1610 Rocket 4.4 04:26:24 10° SSW 04:32:41 72° W 04:39:05 10° N
Cosmos 1707 3.2 04:33:58 41° WNW 04:33:58 41° WNW 04:37:19 10° N
Cosmos 1674 3.5 04:33:09 10° S 04:36:46 51° E 04:40:25 10° NNE
Cosmos 2184 Rocket 4.2 04:32:54 17° SW 04:37:36 48° WNW 04:43:44 10° N
Meteor 1-31 Rocket 2.8 04:35:09 10° NNE 04:38:58 78° ESE 04:42:46 10° S
COSMOS 2441 4.3 04:34:57 10° N 04:39:49 65° WNW 04:44:39 10° SSW
Nadezhda 3 Rocket 4.1 04:35:01 10° NNW 04:41:14 56° W 04:47:23 10° SSW
SJ-6F 4.3 04:37:59 10° N 04:42:09 74° WNW 04:46:15 10° SSW
USA 234 3.5 04:36:17 10° SSE 04:42:34 49° SW 04:46:42 22° WNW
COSMOS 2455 4.3 04:40:34 19° NW 04:42:44 23° NNW 04:47:25 10° NNE
Cosmos 44 Rocket 3.7 04:42:09 33° W 04:43:07 37° WSW 04:47:25 10° S
Cosmos 2058 Rocket 3.0 04:39:36 10° NNW 04:44:01 65° W 04:48:25 10° S
Okean O Rocket 3.8 04:44:50 10° NE 04:48:41 29° E 04:52:30 10° SSE
NOSS 3-4 (A) 3.7 04:47:27 25° WSW 04:50:59 53° NW 04:57:27 10° NE
NOSS 3-4 (C) 3.7 04:47:31 25° WSW 04:51:05 53° NW 04:57:33 10° NE
H-2A R/B 2.8 04:48:27 10° N 04:52:28 44° WNW 04:55:50 15° SW
ARIANE 5 R/B 4.5 04:52:27 10° NNW 04:53:23 11° NW 04:53:23 11° NW
Cosmos 1484 Rocket 3.6 04:50:18 10° NNE 04:54:03 53° E 04:57:50 10° S
ATLAS 3B R/B 3.7 04:53:35 21° WSW 04:54:09 21° WSW 04:59:05 10° SSW
BREEZE-M R/B 4.4 04:52:30 24° W 04:56:08 82° S 05:08:04 10° ESE
CZ-4B R/B 2.6 04:53:30 10° N 04:57:29 71° WNW 05:01:15 10° SSW
SL-16 R/B 2.2 04:53:49 10° SW 04:59:28 70° WNW 05:05:10 10° NNE
Cosmos 2341 Rocket 3.9 04:53:57 10° SSW 05:00:11 80° W 05:06:27 10° N
Cosmos 1140 Rocket 4.0 04:57:30 20° WSW 05:00:29 38° WNW 05:05:20 10° NNE
SKYMED 2 3.5 04:56:37 10° SSE 05:00:58 87° W 05:05:20 10° NNW
CENTAUR R/B 4.1 04:58:32 19° W 05:01:18 23° WSW 05:07:31 10° SSW
Cosmos 1850 Rocket 4.1 04:56:17 10° SSW 05:01:27 82° ESE 05:06:40 10° NNE
Cosmos 1300 3.7 04:59:44 10° N 05:03:28 48° ENE 05:07:09 10° SSE
Cosmos 1295 Rocket 4.4 04:57:56 10° SSW 05:04:01 62° WNW 05:10:06 10° N
Meteor 2-10 4.3 04:59:22 10° NNW 05:04:19 44° W 05:09:24 10° SSW
Cosmos 1892 Rocket 3.8 05:01:41 10° SSW 05:05:55 46° WNW 05:10:10 10° N
Cosmos 1954 Rocket 4.3 05:02:59 13° SW 05:07:28 44° WNW 05:12:27 10° NNE
PAYLOAD A 4.3 05:04:28 10° N 05:09:04 43° WNW 05:13:48 10° SW
ERBS 3.6 05:07:57 19° NW 05:09:33 28° N 05:12:33 10° NE
Meteor 1-24 Rocket 4.0 05:04:04 10° S 05:09:53 78° E 05:15:55 10° NNE
NOSS 5 (C) 4.5 05:07:30 16° NW 05:10:01 86° NE 05:14:04 10° SE
Cosmos 468 Rocket 4.1 05:07:19 10° NNW 05:12:17 50° WSW 05:17:13 10° S
CZ-2C R/B 2.7 05:08:13 10° N 05:13:13 49° WNW 05:18:08 10° SW
Meteor PRIRODA 3.6 05:10:14 10° N 05:13:58 65° WNW 05:17:40 10° SSW
SL-8 Rocket 3.9 05:08:46 10° S 05:14:57 85° W 05:21:10 10° N
MSX 4.4 05:13:20 10° N 05:18:30 36° WNW 05:23:39 10° SW
USA 116 3.2 05:16:44 10° SSE 05:20:14 81° WSW 05:23:29 10° NNW
RESURS DK-1 3.1 05:19:32 15° WSW 05:22:30 33° NW 05:26:17 10° NNE
Cosmos 2333 Rocket 3.9 05:21:59 12° WNW 05:24:54 16° NNW 05:28:24 10° N
Meteor 1-4 Rocket 4.1 05:24:48 15° WNW 05:25:06 15° WNW 05:27:15 10° NNW
COBE Rocket 4.2 05:20:41 10° S 05:25:38 51° W 05:30:43 10° NNW
Cosmos 2366 rocket 4.1 05:19:26 10° S 05:25:49 88° WNW 05:32:13 10° N
Cosmos 841 Rocket 3.5 05:23:54 10° NNW 05:29:11 75° WSW 05:34:25 10° SSE
Cosmos 1943 4.1 05:25:01 10° S 05:30:32 54° ESE 05:36:05 10° NE
Helios 1A Rocket 3.1 05:26:33 10° NNE 05:30:44 80° ESE 05:34:53 10° SSW
GP-B 3.8 05:27:44 10° SSW 05:31:43 32° W 05:35:45 10° NNW
ATLAS 2AS CENTAUR R/B 3.7 05:25:41 13° W 05:32:31 39° NNW 05:39:49 10° NE
Cosmos 2219 Rocket 4.0 05:29:38 10° WNW 05:32:40 15° NNW 05:35:42 10° N
Cosmos 1570 Rocket 4.3 05:27:38 10° NNW 05:32:46 48° WSW 05:37:51 10° S
KORONAS-FOTON 4.1 05:29:20 10° SSW 05:32:56 42° WNW 05:36:35 10° N
SL-14 R/B 3.4 05:29:21 10° S 05:33:17 82° E 05:37:11 10° NNE
Cosmos 1812 Rocket 3.6 05:29:29 10° NNW 05:33:58 66° W 05:38:22 10° S
Cosmos 1726 3.6 05:34:05 10° NW 05:36:27 16° W 05:38:48 10° SW
Cosmos 1626 Rocket 3.6 05:34:50 10° SSW 05:39:05 56° WNW 05:43:23 10° N
ISS -0.3 05:38:57 10° SE 05:39:29 10° SE 05:40:02 10° SE
Cosmos 540 Rocket 3.5 05:38:46 10° NNW 05:43:55 70° WSW 05:49:01 10° SSE
Cosmos 1437 Rocket 3.9 05:43:50 10° WSW 05:46:49 22° WNW 05:49:50 10° NNW
ALOS 2.2 05:42:57 10° NNE 05:47:39 79° WNW 05:52:18 10° SSW
Cosmos 1763 Rocket 4.2 05:43:12 10° NW 05:47:47 33° WSW 05:52:18 10° SSW
Cosmos 2237 Rocket 3.6 05:44:05 10° W 05:48:17 20° NW 05:52:30 10° NNE
COSMO-SKYMED 1 3.4 05:45:22 10° SSW 05:49:13 30° W 05:53:05 10° NNW
Cosmos 2208 Rocket 4.4 05:44:21 10° NW 05:49:14 41° WSW 05:54:09 10° S
Cosmos 1271 Rocket 4.4 05:45:46 10° SSE 05:49:19 39° E 05:52:57 10° NNE
Cosmos 1825 Rocket 4.2 05:45:17 10° S 05:49:32 62° E 05:53:50 10° NNE
USA 267 3.5 05:43:09 10° ENE 05:49:33 58° NNW 05:55:56 10° W
MOS 1-B 4.5 05:45:36 10° N 05:51:19 58° WNW 05:56:59 10° SW
Cosmos 1741 Rocket 4.4 05:47:32 10° SW 05:52:39 45° WNW 05:57:47 10° NNE
SJ-12 4.2 05:50:45 10° N 05:54:42 47° WNW 05:58:38 10° SW
Cosmos 2369 Rocket 2.7 05:52:25 10° NW 05:57:35 38° WSW 06:02:41 10° S
